Вернуться в каталог

STARLINK-30374

АктивенСвязьVLEO
NORAD 57809·PAYLOAD·🇺🇸 United States

Запущен Sep 9, 2023 с Cape Canaveral Space Force Station

Loading…

Ближайшие Пролёты (ближайшие 24 часа)

TLE

СвежийSource: CelesTrak SupGP

Эпоха: Sep 14, 2026, 21:23 UTC

1 57809C 23138B   26257.89145833  .00030974  00000+0  11212-2 0  2577
2 57809  42.9989 245.4156 0001314 264.7439 226.3993 15.27582089    15

Отслеживайте STARLINK-30374 в реальном времени с AllMySat

Download on the App Store